GFSSE_con_sbcape_021.txt.gz
CAPE
835 1625 2778 2613 2495 2300 2377 2715 3168 3457 3370 3248 3159 2958 2880 2496 2356 2379 2287 2204 2020 2071 1740 1650 1348 1260 1446 1361 1201 873 1472 1252 1193 1306 1279 1076 1045 967 899 371 203 251 421
772 1473 2705 2724 2617 2411 2438 2691 3101 3483 3525 3515 3348 3502 3037 2775 2559 2477 2294 2191 2204 2182 1928 1808 1548 1450 1334 1291 1154 1224 1537 1165 1495 1133 1081 1139 1042 783 878 135 545 696 797
994 1332 1792 2723 2739 2389 2623 2903 2879 3137 2987 3174 3349 3214 2967 3048 2522 2372 2195 2025 2008 1849 1751 1670 1680 1606 1481 1484 1557 1503 1473 1312 1602 938 1108 538 765 295 423 317 841 117 284
1097 1293 1449 2872 2887 2643 2586 2939 3071 2881 2500 2720 2914 2985 2680 2705 2432 2340 2249 2080 1826 1711 1744 1710 1725 1545 1734 1489 1531 1689 1269 1081 1377 1190 730 256 493 698 808 859 492 602 513
1317 1441 1855 3204 3053 2450 2537 3001 3191 3098 2896 2630 2583 2574 2671 2704 2510 2312 2161 2033 2008 1847 1883 1748 1988 1702 1693 1457 1636 1761 1498 1551 1483 948 949 834 355 602 851 690 502 329 464
1630 1612 2768 3333 2741 2556 2586 3009 3061 3036 3165 3088 2811 2806 2909 2943 2633 2177 2257 1918 1823 1943 2015 1771 1823 1696 1472 1251 1765 1721 1821 1633 1328 823 1050 1107 495 982 745 601 414 460 611
1806 1783 2533 3431 3325 3216 3189 3104 3095 3000 2747 2581 2629 2766 2639 2626 2592 2465 2382 2200 2082 1906 1810 1633 1649 1682 1532 1386 1844 1853 2015 1528 831 1163 1087 1088 687 1146 450 409 797 488 706
1811 1877 2371 3320 3462 3389 2988 2923 2873 2749 2601 2429 2320 2373 2566 2842 2826 2683 2155 2374 2144 1985 1825 1714 1649 1382 1676 1586 1933 1894 1812 1361 953 999 925 985 961 1198 632 542 1011 218 805
1933 2188 2467 2818 3032 3114 3177 3000 2944 2744 2721 2722 2612 2578 2538 2783 2697 2222 2045 2243 2332 2037 1862 1836 1673 1632 1719 1551 1743 1847 1526 1277 756 1143 1064 817 1540 1265 722 483 920 701 895
2120 2226 2427 2897 2939 3159 3078 3123 3429 3286 2787 2739 2666 2600 2565 2518 2396 1915 2607 2410 2429 2086 2006 1715 1733 1931 2352 1916 1688 2033 1830 1528 1053 1137 1454 971 1700 1173 1016 975 488 1104 988
2152 2367 2630 2767 3184 3544 3487 3290 3657 2875 2756 2714 2752 2630 2646 2301 2197 1703 2359 2345 2160 2106 2050 1917 1612 1679 1963 1830 1521 1840 1474 1242 1032 1080 1492 1398 1664 1210 1231 1340 1160 937 1048
1956 2424 2564 2685 2749 3200 2891 3475 3352 2933 2530 2558 2696 2825 2507 2246 2537 1838 2301 2348 2021 2017 2103 1990 1797 1528 1571 1347 2068 1464 1014 1205 1046 1236 1133 1140 1611 1321 1240 1397 1440 684 1105
1812 2068 2375 2558 2660 2721 3067 3119 3711 2952 3080 2971 3088 2993 3088 2745 2715 1873 2446 2276 2137 2264 1930 1908 1789 1367 1473 1688 1357 2197 1730 1109 1038 1002 949 1271 1645 1302 1515 1391 1262 986 454
1865 1843 2105 2354 2515 2821 3082 2728 3024 3559 3507 3238 3143 2723 2614 2592 2524 1983 1977 2320 2538 2150 2363 2318 2291 1888 1785 1815 1474 1189 1146 1118 770 936 876 940 1735 1756 1995 1688 1070 1273 1263
1630 1723 2028 2340 2468 2589 2466 2786 2700 2862 2676 2922 3125 2649 1063 188 1472 1892 1947 2261 2239 2330 2164 2617 2285 2133 2046 1817 1817 1638 867 1047 790 702 776 860 1345 1824 1966 1797 105 1221 1304
1665 1673 1962 2291 2463 2399 2622 2642 2457 2600 2798 2243 2581 2557 2277 1871 1017 2471 1987 2118 2275 2346 2217 2467 2202 2046 2148 1955 1670 1582 1439 1058 968 818 622 877 1361 1771 1268 1537 824 1613 1489
2215 2001 2014 2071 2172 2387 2395 2372 2209 1891 1730 1623 1711 2259 1931 1867 2089 2055 2260 1869 1935 2124 2221 2508 2366 2102 1783 1652 1710 1558 1679 1359 894 846 770 884 1191 1388 1578 1262 1397 1314 1423
2764 2532 2548 2161 2436 2597 2671 2644 2527 2408 2344 2138 1784 1652 1867 1910 1882 1778 1391 1367 1216 1457 1454 1568 2061 1917 2115 1996 2123 1548 1449 1741 1529 1256 861 757 1007 1105 1350 1357 1155 1013 720
2796 2853 2919 2656 2706 2710 2663 2672 2517 2325 2147 1992 1874 1830 1975 1994 1856 1581 1484 1383 1517 1048 1077 1295 1631 1812 1682 2063 1847 2010 1960 1840 1729 1282 1273 1280 1470 1297 1233 1318 1086 892 787
1860 2158 2465 2699 2465 2086 1895 2245 2072 1869 1660 1526 1479 1464 1418 1400 1670 1667 1578 1575 1563 1218 1133 1132 1442 1692 1622 1546 1590 1577 1616 1507 1532 2062 1728 1144 1397 1496 1321 1172 969 636 1205
689 910 1513 2096 2385 1986 2118 2139 2165 2120 2093 1950 1628 1163 1097 1146 1072 1082 1351 1531 1450 1196 1138 1483 1782 1563 1357 1386 1407 1549 1400 1053 1507 1424 1412 1123 1177 1466 968 438 1066 1116 1060
423 971 1482 1536 1901 1835 1878 1964 1876 1692 1407 1073 1091 1009 889 890 921 832 804 871 901 715 867 1323 1490 1198 1128 1209 594 1121 864 1048 1034 1206 1306 1413 1252 1543 1619 1571 1497 1541 1479
219 629 881 627 815 1592 1833 1540 1425 1069 825 845 644 549 494 411 604 908 406 467 295 338 670 1317 1716 1444 904 1409 1096 1090 764 459 416 680 1070 1274 1363 1498 1545 1627 1623 1693 1621
289 478 64 456 1163 1644 1618 1588 1301 1157 735 381 171 138 286 277 461 580 841 1166 986 384 168 256 978 1754 1305 1009 982 892 559 415 466 501 257 904 1238 1255 1108 1332 1245 1611 1645
176 143 231 759 1254 1390 1087 997 742 478 169 187 406 488 548 534 471 432 685 808 1002 676 298 98 186 783 1858 851 993 872 826 722 414 228 367 143 238 745 1254 1400 1183 1261 1460
19 91 320 596 1209 1357 807 500 534 350 513 428 185 128 123 445 410 624 680 810 887 941 1076 693 218 980 1763 1423 1424 1133 1108 627 814 675 432 403 227 198 238 344 523 895 1062

GFSSE_con_sbcape_024.txt.gz
CAPE
1278 1509 2691 2711 2597 2722 2740 3111 3262 3366 3304 3120 3017 2492 2398 2425 2352 2386 2333 2341 2213 1842 1640 1528 1465 1438 1352 1251 1123 1400 1475 1071 1399 1269 1269 1223 1159 1033 957 697 668 552 746
1308 1432 2596 2813 2854 2628 2815 3224 3666 3489 3385 3311 2967 2666 2419 2497 2434 2458 2232 2090 2120 2074 1954 1458 1411 1444 1578 1400 1035 1647 1411 1448 1406 1357 1161 1179 843 864 318 254 1336 348 808
1201 1507 1680 2826 2910 2570 2794 3177 3319 3723 3501 3162 3412 3005 2684 2641 2628 2328 2273 1968 2131 1971 1778 1810 1571 1439 1691 1281 1274 1581 1434 1262 1260 1120 1249 511 368 535 300 829 617 835 898
1117 1444 1533 2777 2962 2574 2771 3001 3314 3478 3154 3353 3360 3095 2899 2712 2511 2286 2209 2115 1883 1801 1828 1738 1723 1583 1613 1464 1486 1562 1227 1113 992 1283 975 393 135 593 601 736 266 607 482
1054 1057 1862 2954 2917 2556 2771 3216 3275 3300 3133 3003 2875 2719 2615 2532 2505 2399 2281 2158 1909 1801 1838 1777 1909 1670 1808 1578 1630 1593 1273 1154 1261 1216 533 509 388 849 999 743 695 635 744
1161 1185 2398 3169 2519 2500 2688 3084 3043 3023 2994 2806 2652 2632 2740 2673 2570 2365 2136 1953 1767 1988 2092 1813 1993 1771 1762 1410 1707 1789 1548 1364 1398 760 680 620 425 816 953 686 133 665 583
1433 1580 2058 3241 3193 3035 2873 2927 2981 2959 2964 2729 2770 2883 2965 2986 2535 2317 2286 2075 1927 1932 1924 1850 1728 1801 1453 1289 1751 1868 1779 1567 1093 539 700 452 828 1294 698 739 412 648 586
1550 1820 2136 3058 3256 2964 2712 2777 2840 2778 2714 2720 2806 2743 2691 2604 2553 2485 2277 2199 2057 1786 1837 1557 1486 1662 1639 1407 1822 1823 1772 1599 669 573 641 564 674 1299 430 882 642 865 876
1674 1978 2280 2282 2533 2685 2709 2819 2772 2689 2497 2425 2404 2446 2633 2824 2632 2387 1932 2240 2147 1933 1768 1734 1433 1386 1725 1534 1768 1758 1793 1422 663 746 443 475 993 833 740 794 809 345 711
1898 1942 2198 2232 2346 2417 2482 2994 2936 2950 2785 2777 2654 2511 2471 2554 2710 2106 1948 2303 2329 2070 1773 1513 1401 1526 1654 1679 1360 1643 1602 1475 898 950 1042 1054 1521 1104 854 756 1043 769 928
1956 2041 2315 2552 2514 3089 2659 2843 3082 2767 2755 2765 2721 2588 2522 2040 2287 1909 1898 2238 2154 2031 1901 1570 1478 1241 1569 1482 1691 977 1787 1339 1304 965 1296 1671 1790 1154 1110 1101 578 1149 993
1844 1942 2077 2458 2658 2859 2656 2935 2915 2743 2644 2569 2512 2762 2167 1697 1741 1805 2117 2185 2017 1914 2004 1924 1520 1374 1312 860 1255 1568 1081 605 1029 1412 960 1648 1769 1113 1189 1268 1290 850 1156
1842 1948 1988 2249 2649 2736 2545 3140 3534 3919 3533 2647 2705 2864 2553 2298 2493 1575 1395 2338 1691 1997 1665 1811 1575 1244 1261 1574 1391 1488 849 926 1202 1250 1342 1692 1797 1070 1306 1374 1264 1046 1051
2005 1859 1924 2247 2554 2635 3151 2591 2508 2842 3400 2796 2807 2800 3289 2366 2226 1975 1486 2132 2507 1939 1809 1686 1802 1664 1671 1611 1089 1314 1733 981 1003 1203 1431 1703 1884 1606 1169 1533 1273 926 1003
2076 1831 1893 2394 2620 2600 2736 1695 2058 1939 2161 1919 2047 1875 1634 1714 704 328 1297 1818 2753 2568 1984 2035 1710 1532 1670 1683 1426 1299 1074 1156 780 716 997 1550 1555 1835 1839 1771 1350 569 913
2147 1911 2142 2509 2733 2657 2190 2117 1733 1576 2000 1586 1436 1164 1743 1295 297 239 115 1161 3034 2696 1830 1959 2034 1880 1588 1610 1576 1516 1632 1226 1113 1036 695 1346 1645 1657 1734 1633 1391 169 877
2513 2246 2340 2684 2593 2508 2428 2232 1716 1465 1537 1284 1392 1454 1239 1881 1506 644 112 234 1239 3221 1984 1979 1753 1877 1949 1578 1329 1482 1317 1565 1015 1031 837 662 1399 1469 1410 1633 1245 754 522
2899 2857 2800 2330 2476 2744 2743 2484 2288 2037 2671 2719 2670 1932 1808 1693 1500 1495 1979 2276 1835 1484 1260 1299 1429 1391 1778 1992 2077 1502 1539 1773 1524 1162 857 706 824 1027 1339 1311 1334 954 634
3211 3439 3265 3083 2956 3227 3257 2896 2701 2434 2367 1943 2117 1926 1883 2063 1687 2370 1701 1452 2106 1521 1231 1148 1183 1333 1793 1859 1573 1350 1422 1649 1976 1653 1582 1278 1009 732 780 1600 1360 808 970
3124 3501 3433 3506 3445 3402 3368 3277 2555 2969 2283 2119 1869 1853 2069 2230 2018 2286 3003 2566 2429 2390 1217 1001 1219 1166 1846 1750 1323 996 1060 1309 1592 1425 1752 2099 1074 1786 1735 1584 1995 1138 1032
2644 3214 3328 3431 3791 3625 2932 2618 2598 1846 1611 2469 1822 2279 2181 2066 1981 1986 1804 2117 2377 2563 1916 1199 1514 1534 1020 1252 1518 883 1030 1252 1662 1318 2232 1994 1477 1527 1808 1601 1261 1184 1670
2111 2449 2459 2342 2968 3211 2952 2920 2526 2800 2393 2185 2018 1913 1779 1751 1875 1827 1890 2368 2239 2575 2374 1902 1471 2239 821 879 1097 829 1029 931 947 1305 1572 1581 1581 1914 1564 1926 1140 1543 1969
1110 1767 1714 2685 3171 3060 2595 2731 2755 2413 2153 1728 1052 709 711 840 909 1175 1305 1489 1567 1886 1712 2291 1960 1665 1362 832 1317 898 960 687 534 1506 1693 1331 1428 2387 1512 1736 1823 1930 2030
923 1204 1925 1717 2384 2783 2884 2783 2658 2077 1037 728 669 701 909 786 736 725 955 1115 1261 1286 932 674 758 956 1522 1679 1328 797 949 917 537 481 621 1080 1545 1870 1823 1475 1444 1600 1718
668 968 905 1526 2255 2647 2673 2444 1619 744 603 783 780 843 897 868 893 772 779 846 1139 1725 1241 974 1004 485 886 1789 1716 1047 1401 787 845 442 376 288 446 815 1050 1400 1361 1491 1155
801 629 1040 2007 2254 2263 1927 1494 1136 1302 1077 1014 1044 761 660 668 711 720 858 1013 1130 1426 1168 1218 1413 545 238 504 1770 1379 949 1417 952 1154 1195 699 402 521 331 434 703 463 698

GFSSE_con_sbcape_030.txt.gz
CAPE
1301 1449 2857 2980 3098 3433 3719 3756 3371 2971 2888 2807 2838 2780 2677 2447 2296 2605 2834 2737 2420 1940 1602 1319 1075 1082 1334 1272 1464 977 1358 1358 1320 1279 1263 1014 1056 1298 786 598 1080 513 765
1312 1248 3064 3289 3360 3559 3733 3690 3513 3334 2932 2989 3034 3040 2982 2634 2460 2314 2496 2357 1956 1812 1611 1406 1523 1490 1425 1317 1512 1211 1284 1171 1353 1222 1195 1021 964 627 599 525 1326 407 222
1050 1246 1687 3343 3411 3504 3689 3701 3133 3362 3112 3094 3220 3071 2955 2684 2447 2325 2276 1825 2026 2027 1722 1502 1577 1725 1630 1268 1545 1355 1475 1334 1604 1229 1046 475 156 900 909 822 1095 387 393
1121 1106 1498 3291 3444 3495 3763 3728 3634 3340 3183 3342 3367 3221 2967 2803 2578 2391 2140 1934 2096 2021 1895 1803 1621 1842 1516 1403 1495 1642 1438 1489 1185 924 872 377 4 893 634 1073 962 426 364
1213 1465 2144 3401 3310 3140 3467 3800 3665 3499 3387 3384 3253 2965 2925 2831 2475 2340 2335 2109 2070 1992 1797 1852 1736 1806 1511 1566 1527 1898 1526 1271 889 732 421 644 112 802 231 343 641 880 878
1499 1793 2536 3060 3055 3001 3146 3598 3634 3626 3560 3453 2998 2852 2748 2622 2647 2516 2481 2211 1931 1801 1821 1927 1818 1876 1653 1490 1621 1876 1616 1068 946 1105 758 1340 497 1213 893 448 683 729 873
1946 1432 1575 2932 2939 2924 3076 3126 3172 3313 3292 2954 2716 2613 2583 2607 2625 2330 2234 1938 1851 1590 1508 1656 1689 1808 1645 1136 1514 1968 1708 1426 1071 729 683 718 1048 1487 903 855 942 778 748
1595 953 1399 2701 2754 2674 2525 2505 2581 2622 2554 2464 2418 2587 2609 2618 2456 2445 2320 2222 1979 1656 1599 428 1323 1579 1382 1108 1092 2046 1672 1570 949 951 576 786 1526 1680 713 519 946 543 574
1282 1561 1759 1702 2144 2292 2380 2364 2403 2396 2316 2455 2600 2660 2611 2515 2460 2225 2351 2071 1952 1712 1545 1510 1403 1522 1495 564 242 1573 1914 1466 1175 930 536 730 1605 1562 851 632 780 793 330
1512 1748 1795 2110 2061 2115 2103 2611 2790 2742 2330 2332 2362 2351 2408 2688 2605 2422 2141 2455 1972 1742 1445 1450 1524 1443 1778 1734 800 1096 1708 1537 1031 723 875 697 1586 1466 1031 749 674 1004 712
2014 1906 1843 2151 2488 2792 2927 2574 2911 2317 2211 2217 2239 2136 2123 2004 2180 2124 1758 2606 2004 1877 1697 1433 1498 1883 2008 1677 964 245 1114 1082 322 658 685 938 1134 1797 1295 1062 1466 995 823
1697 1866 1915 2343 2466 2840 2227 3069 2554 2447 2435 2551 2498 2887 2346 1994 2641 2088 2185 2566 2103 1914 1846 1882 2104 2221 1687 1435 1351 519 795 699 729 644 789 810 1420 1911 1927 1611 1680 1428 1006
1698 1999 2622 2657 2997 2856 2717 2754 2510 2636 2635 3045 2738 2725 3008 2343 2670 1672 2250 2127 2130 2131 1660 2187 1741 1355 1205 464 407 1397 788 661 610 785 83 610 1271 2020 1426 1721 1592 1711 1291
1985 1848 2341 2684 3173 3390 3063 2773 3022 2627 2521 2603 2712 3455 3605 2719 2797 3236 1916 1952 2184 1920 1755 1657 1776 1512 1288 1409 1064 903 890 970 768 1242 882 951 1089 1918 1790 1608 1604 1436 1174
2163 2134 2270 2097 3090 3325 3187 2312 2463 2494 2357 2337 2626 2824 2691 2746 3107 2914 2482 1819 2210 2173 2211 1995 1010 665 827 1296 1874 1423 1088 870 904 1051 1350 1659 1292 1672 1962 1662 1504 1399 1264
1739 1989 2712 3112 3784 3157 3076 2716 3212 3078 2799 2540 1622 2383 2974 2408 2997 2580 1494 960 1447 2116 1624 652 109 271 946 1418 1770 1791 1548 1520 1044 800 255 1128 1729 1481 1789 2009 2130 1576 983
1988 1987 2567 3146 3397 3679 2720 2493 3149 3109 2301 1768 2176 3375 2686 2729 3022 2517 1680 702 395 953 1165 4 197 0 151 1360 1649 1532 1542 1823 1610 1321 735 855 1118 1569 1502 1813 1887 1993 652
2106 2734 2892 1873 2998 3599 3461 3123 2851 2185 2647 1839 2519 2942 3039 2943 3249 2856 2414 1742 1267 100 1 558 9 0 235 996 1141 1301 1437 1258 1557 1946 1525 1296 861 936 966 1097 1604 1603 459
3031 3427 3525 3559 826 912 1668 1827 2769 2835 3124 2802 2821 2632 2968 2946 2150 2348 2105 1990 1856 1169 699 1018 800 513 791 936 1131 1495 1713 1193 1012 1492 1703 1470 1530 1518 1035 1152 1245 1137 688
3140 3587 3735 301 5 0 4 0 0 2359 3042 2813 2142 2801 2868 2448 1949 2342 2149 1996 1822 1576 1654 1706 1456 1321 937 654 858 1169 1532 1107 1531 1848 1633 1409 1392 1375 1231 935 612 595 908
2704 3106 1989 936 56 0 17 0 20 1159 1802 2617 2794 2769 2738 2573 2012 2801 2323 1862 1707 2044 1469 1506 1048 684 319 593 721 1158 1095 840 1131 1406 1514 1516 1938 1640 1502 957 708 574 396
2673 3209 2235 601 106 19 40 168 14 670 2171 2286 2995 2669 2859 2544 2493 2159 1807 1336 1044 1068 1451 1622 769 639 697 1132 812 778 602 933 936 1170 1312 1611 1476 1432 1382 1599 1146 883 708
2558 2739 3220 2133 1088 917 342 450 389 1703 2540 2726 2790 2469 2332 1618 1729 1696 1369 1667 1673 1542 1071 1339 1226 832 577 358 599 715 622 654 738 1167 1270 1251 1560 1570 1128 1713 1806 814 459
2161 3169 2901 3098 3273 3035 2210 1048 1414 2004 1819 2197 2422 2205 1854 1836 1613 1542 1548 1307 1548 1550 1580 1436 1048 872 921 222 102 555 828 876 418 700 971 1017 1280 1245 1168 2030 873 19 1
1983 2172 2740 3022 3368 2803 2508 2457 3446 2252 2761 2335 2292 2172 1942 2068 1631 1187 1350 1442 1581 1570 1259 1159 1110 1435 700 576 209 249 679 837 1161 569 736 709 854 841 1237 1801 792 23 0
2039 2140 2327 3225 3139 3055 3174 2796 2811 2740 2384 1873 2070 1955 1373 1514 1500 1358 1387 1378 1651 1585 1390 1190 1588 1136 841 938 788 483 494 353 699 934 820 515 291 177 455 579 988 397 384

GFSSE_con_sbcape_033.txt.gz
CAPE
1222 2009 2944 3268 3473 3678 3404 3259 2954 2677 2314 2431 2650 2717 2824 2868 2880 2835 2729 2717 2207 1993 1637 1233 1135 1475 1315 1458 995 1196 1292 1357 1287 1207 1107 1030 1027 1099 992 1015 734 661 974
1172 2152 3044 3225 3654 3767 3648 3394 3145 2988 2572 2622 2707 2843 2678 2908 2669 2636 2984 2464 1936 1762 1593 1479 1434 1538 1443 1517 1373 1227 1276 1376 1156 1097 951 1050 747 766 693 895 443 300 412
1318 2080 2439 3233 3597 3660 3465 3350 3210 2947 2511 2671 2984 2882 2656 2998 2546 2249 2178 2106 1986 1845 1645 1640 1776 1609 1490 1435 1546 1344 1365 1302 1240 1027 824 129 715 892 1066 884 286 141 637
1074 1811 2554 3207 3521 3647 3486 3363 3306 3052 2556 2733 2770 2752 3053 2881 2548 2294 2033 1969 2099 2056 1975 1770 1834 1742 1570 1593 1456 1580 1456 1358 893 619 635 88 497 1213 1172 871 191 180 563
1082 2001 2568 3508 3583 3551 3589 3430 3352 3263 3165 2930 2798 2710 2777 2596 2468 2143 2034 2085 2068 1880 1913 1871 2013 1753 1541 1648 1406 1907 1567 1169 702 336 363 193 201 430 676 966 577 646 764
1479 2307 3142 3310 3044 3361 3624 3554 3437 3367 3383 3227 2808 2759 2817 2401 2323 2444 2193 2017 1872 1792 1903 1896 1890 1858 1626 1560 1582 1613 1482 1088 1155 477 519 427 251 719 504 396 950 843 556
1489 2104 2590 3231 3335 3451 3617 3613 3542 3502 3452 3262 2827 2571 2486 2637 2624 2471 2148 1903 1762 1636 1829 1799 1758 1841 1588 1568 1679 1746 1645 1215 689 355 444 384 608 1074 738 1040 921 777 647
1292 1737 1987 2834 3069 3036 2904 2908 2982 2913 2828 2708 2630 2636 2605 2764 2801 2744 2064 1947 1793 1538 1795 1326 1621 1673 1378 1391 1678 2302 1610 1167 925 542 515 516 1225 1627 801 974 868 776 510
1001 1294 1840 2055 1958 2265 2490 2463 2556 2499 2477 2878 2878 3159 2750 2590 2424 2682 2807 2571 1882 1643 1611 571 1352 1622 1462 1370 1519 1929 1593 1354 1086 629 1017 564 1599 1546 744 802 790 369 746
1042 1160 1359 1547 1670 1888 2126 2806 2917 2910 2740 2464 2559 2543 2516 2450 2415 2168 2794 2681 1912 1711 1568 1465 1273 1591 2191 588 215 1021 1705 1496 860 505 797 486 1358 1515 786 665 920 566 479
1116 1058 1226 1353 1466 1504 1724 2130 2900 2477 2250 2265 2102 2118 2430 1984 1974 2185 2088 2234 2075 1895 1644 1458 1776 2063 2005 1324 1015 556 1336 924 503 411 574 1239 1610 1759 948 1082 1117 918 645
1204 1169 1310 1355 1457 1802 2084 1936 1954 1734 1644 1641 1761 1588 1591 1392 1410 1837 1869 2245 2195 1940 1790 2006 2414 1971 1608 1126 943 401 76 815 378 335 329 1176 1618 2145 1473 1475 1325 1125 764
1317 1396 1487 1570 1631 1842 1940 1956 1870 1780 1773 1844 1811 1903 1716 1594 1688 1604 1506 1638 1579 2015 1378 2012 1903 1492 1231 454 1032 569 265 354 297 249 1 190 961 2332 1726 1764 1778 1233 1017
1464 1438 1625 1628 1841 1919 1932 1928 1727 1897 1772 1684 1653 1904 1425 1398 1161 1312 1078 1200 1183 1110 1157 1287 1074 1046 885 408 120 802 787 364 263 243 14 89 508 2321 2318 1591 1646 1643 1128
1420 1644 1787 2156 1843 1886 1810 1602 1609 1628 1497 1520 1441 1403 1480 1098 1475 1251 663 395 1019 1215 1097 843 642 668 528 591 493 346 374 437 556 613 160 345 770 1484 2271 1777 1568 1131 1217
1331 1558 1876 1996 1848 1917 1573 1325 1335 1435 1322 1433 1302 1298 1398 1213 1045 1201 498 167 144 608 639 180 355 92 280 366 769 1014 754 394 439 409 575 798 1557 1259 2091 2348 2088 1756 1632
1504 1495 1768 1648 1689 1281 1136 1260 1223 1104 1717 792 923 773 1469 1396 1154 1366 823 196 20 0 128 7 1 2 64 442 695 885 904 800 568 587 459 130 1043 1728 1597 2163 2182 2003 2139
1272 1595 1545 663 7 0 0 0 0 20 476 1113 990 1503 1633 1480 1287 1233 1212 458 111 10 49 0 1 0 0 35 543 787 765 667 997 815 707 521 784 771 1015 1367 2188 2114 2148
1634 929 217 86 119 9 7 0 0 0 0 696 1052 1510 1588 1671 1451 1069 1109 1240 868 87 0 26 29 0 0 37 558 649 848 736 750 945 875 915 781 816 423 850 1297 1549 1768
2389 369 218 158 5 0 1 0 0 0 26 218 1391 1198 1544 1605 1242 733 1162 1118 832 536 312 86 384 122 128 161 442 213 207 719 664 761 884 941 743 762 698 438 779 885 1780
2450 628 711 234 1 0 0 0 0 34 68 492 1947 1743 1423 1021 989 1170 927 650 473 531 559 464 282 223 121 21 88 0 130 418 510 608 649 609 1068 1082 575 533 293 334 530
2399 1196 713 101 1 0 0 26 13 36 156 247 1349 1330 1584 1545 1167 1050 856 693 486 419 399 368 463 105 171 0 151 2 70 19 335 354 645 810 872 1063 897 586 438 392 335
2115 1281 434 7 0 0 0 0 0 0 25 461 1197 1166 1480 916 728 636 521 377 541 505 485 308 246 79 121 36 200 122 41 12 22 161 584 991 943 727 738 693 547 635 473
2392 2413 774 239 106 51 109 41 0 0 181 700 957 765 608 622 608 601 470 502 417 535 388 485 307 212 117 110 4 211 135 59 38 49 134 573 513 865 670 518 907 496 114
2379 2316 2343 1729 849 177 304 530 210 364 1235 848 498 592 293 581 375 602 648 445 583 614 606 429 409 288 189 65 0 0 0 91 151 8 74 99 339 361 534 496 234 9 0
1967 2264 2396 2133 2095 1634 1194 1223 1296 1184 778 510 631 352 431 498 488 352 244 509 612 558 625 480 324 274 200 175 24 0 65 68 88 51 79 99 69 93 53 175 160 18 264